Total_Precipitation_Accumulation
0.78 0.56 0.74 0.76 0.68 0.67 0.63 0.62 0.61 0.58 0.54 0.50 0.46 0.43 0.42 0.43 0.45 0.47 0.44 0.36 0.31 0.28 0.25 0.31 0.36 0.31 0.31 0.35 0.38 0.42 0.48 0.49 0.42 0.35 0.39 0.43 0.42 0.47 0.60 0.73 0.88 0.92 0.70
0.57 0.51 0.83 0.85 0.78 0.74 0.68 0.64 0.63 0.59 0.52 0.49 0.48 0.45 0.43 0.44 0.46 0.45 0.39 0.35 0.33 0.29 0.28 0.36 0.39 0.34 0.35 0.42 0.51 0.57 0.62 0.58 0.49 0.41 0.53 0.59 0.55 0.57 0.64 0.74 1.02 0.96 0.65
0.49 0.48 0.69 0.89 0.87 0.80 0.73 0.68 0.69 0.62 0.51 0.48 0.50 0.47 0.41 0.38 0.37 0.36 0.36 0.33 0.33 0.32 0.32 0.37 0.41 0.35 0.36 0.46 0.57 0.59 0.61 0.59 0.52 0.56 0.98 1.53 1.13 0.76 0.69 0.80 0.84 0.73 0.60
0.43 0.48 0.62 0.90 0.94 0.87 0.80 0.76 0.85 0.77 0.63 0.56 0.53 0.50 0.43 0.39 0.41 0.48 0.48 0.40 0.37 0.36 0.34 0.38 0.45 0.38 0.38 0.45 0.50 0.49 0.52 0.53 0.58 0.80 1.42 1.87 1.61 1.07 0.94 0.90 0.81 0.73 0.63
0.47 0.52 0.79 0.98 0.87 0.84 0.84 0.93 1.06 0.97 0.86 0.74 0.63 0.55 0.51 0.47 0.48 0.54 0.49 0.48 0.47 0.44 0.42 0.48 0.53 0.46 0.41 0.39 0.40 0.40 0.49 0.67 0.84 0.97 1.34 1.57 1.66 1.31 1.08 0.93 0.86 0.77 0.75
0.53 0.59 0.75 0.88 0.85 0.85 0.89 0.98 1.03 1.06 1.07 0.88 0.73 0.66 0.65 0.63 0.62 0.64 0.63 0.57 0.57 0.55 0.55 0.56 0.54 0.52 0.48 0.46 0.43 0.45 0.59 0.80 0.95 1.10 1.36 1.45 1.45 1.22 1.03 0.91 0.91 0.91 0.89
0.48 0.54 0.60 0.77 0.74 0.77 0.86 0.96 0.96 1.03 1.11 0.97 0.76 0.75 0.78 0.71 0.71 0.73 0.76 0.65 0.63 0.61 0.61 0.63 0.57 0.55 0.53 0.53 0.51 0.54 0.60 0.64 0.79 1.05 1.35 1.54 1.30 1.08 1.01 0.88 0.88 0.95 0.99
0.58 0.53 0.56 0.68 0.71 0.74 0.84 0.97 0.90 0.94 1.05 0.99 0.89 0.83 0.77 0.77 0.80 0.82 0.78 0.73 0.67 0.66 0.65 0.67 0.66 0.60 0.57 0.56 0.56 0.60 0.63 0.58 0.61 0.79 0.92 1.34 1.45 1.25 0.98 0.89 0.92 0.89 0.90
0.94 0.83 0.66 0.59 0.61 0.69 0.83 0.96 0.97 0.97 0.98 0.95 1.00 0.94 0.92 0.89 0.83 0.78 0.76 0.75 0.74 0.73 0.73 0.70 0.66 0.63 0.60 0.59 0.58 0.61 0.67 0.61 0.65 0.72 0.71 1.15 1.41 1.30 0.99 0.87 0.88 0.94 0.92
1.01 0.95 0.83 0.73 0.71 0.74 0.71 0.87 1.07 1.14 1.09 0.99 0.98 0.97 0.97 0.91 0.82 0.77 0.71 0.72 0.76 0.77 0.81 0.82 0.73 0.71 0.68 0.63 0.60 0.66 0.70 0.61 0.57 0.60 0.69 0.94 1.29 1.31 1.15 0.86 0.74 0.71 0.71
0.85 0.85 0.85 0.87 0.89 0.95 0.95 0.93 1.15 1.23 1.16 0.97 0.87 0.91 0.92 0.78 0.80 0.82 0.71 0.82 0.82 0.87 0.91 0.90 0.85 0.83 0.73 0.64 0.68 0.77 0.64 0.52 0.63 0.61 0.68 0.83 1.12 1.22 1.18 0.94 0.67 0.57 0.54
0.69 0.67 0.67 0.70 0.78 0.89 0.97 1.30 1.51 1.30 1.19 0.92 0.91 0.81 0.87 0.94 1.02 0.85 0.79 0.95 0.97 1.01 0.99 0.97 1.00 0.93 0.75 0.57 0.62 0.67 0.52 0.53 0.61 0.53 0.61 0.80 1.05 1.10 1.04 0.89 0.68 0.55 0.51
0.52 0.50 0.49 0.48 0.50 0.58 0.78 1.12 1.41 1.52 1.48 1.40 1.16 0.93 0.94 0.82 0.72 0.67 0.69 0.80 0.87 0.95 0.90 0.93 0.93 0.79 0.69 0.63 0.58 0.50 0.49 0.53 0.64 0.64 0.73 0.85 0.97 1.05 1.01 0.88 0.72 0.60 0.53
0.50 0.49 0.45 0.45 0.42 0.43 0.52 0.69 0.89 1.03 1.12 1.14 0.99 0.88 0.95 0.84 0.74 0.75 0.75 0.75 0.75 0.83 0.92 0.95 0.90 0.77 0.65 0.58 0.54 0.53 0.54 0.56 0.70 0.86 0.96 0.78 0.86 0.98 1.02 0.93 0.79 0.68 0.60
0.55 0.61 0.57 0.48 0.45 0.44 0.47 0.55 0.62 0.77 0.86 0.89 0.91 0.86 0.90 0.90 0.87 0.84 0.77 0.77 0.71 0.77 0.87 0.94 0.89 0.80 0.73 0.66 0.62 0.66 0.69 0.72 0.76 0.82 0.88 0.80 0.86 1.03 1.15 1.10 0.95 0.78 0.69
0.55 0.62 0.67 0.59 0.54 0.50 0.47 0.50 0.54 0.64 0.72 0.76 0.75 0.75 0.85 0.94 0.93 0.90 0.85 0.86 0.83 0.84 0.96 0.94 0.85 0.88 0.85 0.74 0.62 0.62 0.67 0.75 0.79 0.77 0.80 0.89 0.88 0.87 1.08 1.23 1.20 0.97 0.87
0.55 0.58 0.61 0.63 0.63 0.61 0.59 0.57 0.56 0.63 0.73 0.75 0.72 0.67 0.69 0.78 0.83 0.86 0.87 0.87 0.91 0.99 1.04 1.06 0.90 0.89 0.83 0.73 0.66 0.61 0.59 0.63 0.66 0.71 0.69 0.67 0.73 0.79 0.95 1.18 1.29 1.16 1.06
0.47 0.48 0.53 0.55 0.61 0.68 0.71 0.71 0.71 0.71 0.78 0.75 0.74 0.68 0.63 0.68 0.77 0.90 0.90 0.88 0.91 1.03 1.10 1.14 1.04 0.96 0.88 0.83 0.80 0.71 0.65 0.66 0.64 0.70 0.71 0.61 0.70 0.68 0.80 0.88 1.02 1.12 1.13
0.42 0.42 0.45 0.50 0.52 0.64 0.72 0.76 0.83 0.84 0.86 0.83 0.82 0.74 0.71 0.76 0.83 1.00 1.10 1.11 1.11 1.12 1.10 1.05 1.09 1.04 0.98 0.96 0.92 0.88 0.78 0.71 0.71 0.67 0.70 0.70 0.65 0.69 0.78 0.60 0.62 0.70 0.86
0.33 0.35 0.39 0.45 0.48 0.55 0.70 0.82 0.97 1.07 1.04 1.06 1.00 0.89 0.91 1.05 1.18 1.32 1.32 1.39 1.46 1.32 1.26 1.20 1.21 1.15 1.06 1.07 1.02 0.91 0.83 0.72 0.76 0.78 0.77 0.77 0.71 0.68 0.76 0.65 0.56 0.47 0.54
0.23 0.26 0.32 0.36 0.44 0.53 0.61 0.75 0.96 1.23 1.33 1.43 1.39 1.21 1.16 1.28 1.52 1.72 1.69 1.73 1.75 1.61 1.55 1.61 1.79 1.73 1.46 1.24 1.24 1.06 0.89 0.73 0.80 0.81 0.77 0.79 0.78 0.84 0.93 0.84 0.65 0.56 0.45
0.16 0.17 0.23 0.32 0.42 0.51 0.60 0.77 0.94 1.08 1.07 1.24 1.40 1.38 1.30 1.29 1.44 1.57 1.82 1.91 1.83 1.83 1.94 1.97 2.27 2.39 1.97 1.56 1.54 1.61 1.35 1.13 0.84 0.69 0.72 0.73 0.80 0.99 1.01 0.87 0.75 0.61 0.52
0.11 0.13 0.17 0.24 0.35 0.48 0.64 0.87 1.09 1.27 1.35 1.41 1.34 1.43 1.44 1.37 1.41 1.51 1.66 1.82 1.82 1.88 1.96 2.07 2.39 2.82 2.57 2.07 1.83 2.00 1.68 1.47 1.26 0.86 0.69 0.70 0.81 0.98 1.10 1.05 0.96 0.83 0.68
0.10 0.10 0.13 0.22 0.38 0.59 0.80 1.05 1.31 1.51 1.55 1.43 1.48 1.51 1.39 1.33 1.30 1.37 1.51 1.64 1.76 1.78 1.90 2.00 2.11 2.56 2.87 2.55 2.26 1.93 1.60 1.51 1.56 1.32 0.92 0.81 0.87 0.93 1.01 1.02 1.02 1.06 0.95
0.16 0.18 0.25 0.45 0.70 0.96 1.17 1.43 1.72 1.72 1.60 1.51 1.50 1.47 1.42 1.43 1.40 1.39 1.53 1.60 1.61 1.66 1.76 2.09 2.34 2.59 2.77 2.70 2.59 2.42 2.17 1.85 1.47 1.52 1.43 1.15 1.04 0.96 0.99 1.04 1.07 1.08 1.07
0.47 0.61 0.80 1.07 1.27 1.35 1.48 1.64 1.76 1.73 1.74 1.67 1.49 1.39 1.39 1.43 1.49 1.53 1.59 1.59 1.56 1.59 1.69 1.91 2.18 2.39 2.71 2.87 2.75 2.53 2.36 2.19 1.93 1.75 1.52 1.41 1.36 1.14 1.08 1.08 1.04 1.07 1.12